Weather History for Tucumcari, NM

Change the Weather History Date:

Thursday, June 13, 2013

  Actual Average Record
Temperature  
Mean Temperature 84 °F -  
Max Temperature 98 °F 90 °F 108 °F (1939)
Min Temperature 70 °F 60 °F 42 °F (1947)
Cooling Degree Days 19    
Growing Degree Days 34 (Base 50)    
Moisture  
Dew Point 54 °F    
Average Humidity 37    
Maximum Humidity 63    
Minimum Humidity 19    
Precipitation  
Precipitation 0.00 in - - ()
Sea Level Pressure  
Sea Level Pressure 29.85 in    
Wind  
Wind Speed 13 mph (South)    
Max Wind Speed 22 mph    
Max Gust Speed 28 mph    
Visibility 10 miles    
Events      
Averages and records for this station are not official NWS values.
T = Trace of Precipitation, MM = Missing Value Source: NWS Daily Summary

Daily Weather History Graph

Daily Weather History Graph

Search for Another Location

Airport:

Trip Planner

Search our weather history database for the weather conditions in past years. The results will help you decide how hot, cold, wet, or windy it might be!

Date:

Astronomy

Jun. 13, 2013 Rise Set
Actual Time 5:39 AM MDT 8:09 PM MDT
Civil Twilight 5:09 AM MDT 8:39 PM MDT
Nautical Twilight 4:32 AM MDT 9:16 PM MDT
Astronomical Twilight 3:52 AM MDT 9:57 PM MDT
Moon 10:09 AM MDT (6/13) 11:27 PM MDT (6/13)
Length of Visible Light 15h 30m
Length of Day
14h 30m
Waxing Crescent, 22% of the Moon is Illuminated
Jun 13
Waxing Crescent
Jun 16
First Quarter
Jun 23
Full
Jun 29
Last Quarter
Jul 8
New

Hourly Weather History & Observations

Time (MDT) Temp. Heat Index Dew Point Humidity Pressure Visibility Wind Dir Wind Speed Gust Speed Precip Events Conditions
12:53 AM 80.1 °F 80.1 °F 55.0 °F 42% 29.86 in 10.0 mi SSW 18.4 mph - N/A   Clear
1:53 AM 78.1 °F - 57.0 °F 48% 29.86 in 10.0 mi SSW 13.8 mph - N/A   Clear
2:53 AM 77.0 °F - 57.9 °F 52% 29.86 in 10.0 mi SSW 13.8 mph - N/A   Clear
3:53 AM 75.0 °F - 57.9 °F 55% 29.87 in 10.0 mi West 8.1 mph - N/A   Clear
4:53 AM 73.0 °F - 57.0 °F 57% 29.88 in 10.0 mi WSW 6.9 mph - N/A   Clear
5:53 AM 70.0 °F - 57.0 °F 63% 29.91 in 10.0 mi Calm Calm - N/A   Clear
6:53 AM 73.9 °F - 57.9 °F 57% 29.91 in 10.0 mi SSW 5.8 mph - N/A   Clear
7:53 AM 78.1 °F - 59.0 °F 52% 29.92 in 10.0 mi SSW 13.8 mph - N/A   Clear
8:53 AM 81.0 °F 81.3 °F 59.0 °F 47% 29.92 in 10.0 mi SW 11.5 mph - N/A   Clear
9:53 AM 84.9 °F 84.2 °F 57.9 °F 40% 29.92 in - SSE 8.1 mph 17.3 mph N/A   Clear
10:53 AM 88.0 °F 86.7 °F 57.0 °F 35% 29.90 in 10.0 mi South 8.1 mph 16.1 mph N/A   Unknown
11:53 AM 91.9 °F - 52.0 °F 26% 29.88 in 10.0 mi SSW 13.8 mph 23.0 mph 0.00 in   Clear
12:53 PM 93.0 °F 90.6 °F 53.1 °F 26% 29.86 in 10.0 mi South 13.8 mph 20.7 mph N/A   Clear
1:53 PM 95.0 °F - 51.1 °F 22% 29.83 in 10.0 mi SSE 17.3 mph - N/A   Clear
2:53 PM 98.1 °F - 48.9 °F 19% 29.80 in 10.0 mi South 20.7 mph 27.6 mph N/A   Clear
3:53 PM 96.1 °F - 48.0 °F 19% 29.78 in 10.0 mi South 12.7 mph 27.6 mph N/A   Clear
4:53 PM 97.0 °F - 51.1 °F 21% 29.78 in 10.0 mi SSE 21.9 mph 27.6 mph N/A   Clear
5:53 PM 95.0 °F - 50.0 °F 22% 29.77 in 10.0 mi SSE 18.4 mph 25.3 mph N/A   Clear
6:53 PM 93.0 °F - 50.0 °F 23% 29.77 in 10.0 mi SSE 20.7 mph 25.3 mph N/A   Clear
7:53 PM 89.1 °F - 50.0 °F 26% 29.78 in 10.0 mi South 15.0 mph - N/A   Clear
8:53 PM 84.9 °F - 52.0 °F 32% 29.81 in 10.0 mi SSE 11.5 mph - N/A   Clear
9:53 PM 84.0 °F 82.5 °F 53.1 °F 34% 29.82 in 10.0 mi SSE 13.8 mph - N/A   Clear
10:53 PM 81.0 °F 80.4 °F 53.1 °F 38% 29.84 in 10.0 mi South 12.7 mph - N/A   Clear
11:53 PM 80.1 °F 79.9 °F 53.1 °F 39% 29.84 in 10.0 mi South 16.1 mph - N/A   Clear